[[{"header":{"parameterUnit":"m.s-1","parameterCategory":1,"la1":30.2991,"la2":30.254,"lo1":-89.0895,"lo2":-89.0444,"dy":0.0017,"dx":0.0017,"nx":28,"ny":28,"refTime":"2024-02-03T03:00:00:Z","depth":0,"parameterNumber":2,"parameterNumberName":"U-component_of_WINDS"},"data":[0,0,0,0,0,0,0,0,0,0,0,0,0,0,0,0,0,0,0,0,0,0,0,0,0,0,0,0,0,0,0,0,0,0,0,0,0,0,0,0,0,0,0,0,0,0,0,0,0,0,0,0,0,0,0,0,0,0,-1.0411,-1.041,0,-1.0348,-1.0347,-1.0347,-1.0274,-1.0273,-1.0272,-1.0271,-1.0205,-1.0204,-1.0203,0,0,0,0,0,0,0,0,0,0,0,0,0,-1.0469,-1.0468,-1.0411,-1.041,-1.0409,-1.0348,-1.0347,-1.0346,-1.0274,-1.0273,-1.0272,-1.027,-1.0205,-1.0204,-1.0203,0,0,0,0,0,0,0,0,0,0,0,0,0,-1.0429,-1.0468,-1.0411,-1.0366,-1.0361,-1.0348,-1.0347,-1.0346,-1.0275,-1.0273,-1.0271,-1.027,-1.0205,-1.0204,-1.0203,-1.0229,0,0,-1.02,-1.0199,0,0,0,0,0,0,0,0,-1.0431,-1.0426,-1.0373,-1.0369,-1.0364,-1.0317,-1.0343,-1.0307,-1.0275,-1.0307,-1.0271,-1.0269,-1.0243,-1.0239,-1.0231,-1.0226,-1.0223,-1.02,-1.0199,-1.0199,-1.0198,0,0,0,0,0,0,0,-1.0434,-1.0429,-1.0386,-1.0373,-1.0367,-1.0349,-1.0342,-1.0336,-1.0285,-1.0304,-1.0299,-1.0293,-1.0241,-1.0232,-1.0229,-1.0222,-1.02,-1.0199,-1.0198,-1.0198,-1.0237,-1.0239,0,0,0,0,0,0,-1.0443,-1.0432,-1.0388,-1.0384,-1.0394,-1.0349,-1.0341,-1.0334,-1.0285,-1.0276,-1.0294,-1.029,-1.0235,-1.023,-1.0226,-1.0254,-1.0199,-1.0198,-1.0197,-1.0236,-1.0238,-1.024,0,0,0,0,0,0,-1.0445,-1.044,-1.039,-1.0406,-1.0399,-1.035,-1.0343,-1.0333,-1.0325,-1.0277,-1.0268,-1.0295,-1.0233,-1.0228,-1.0229,-1.0251,-1.0197,-1.0196,-1.0234,-1.0236,-1.0239,-1.031,0,0,0,0,0,0,-1.0447,-1.0441,-1.045,-1.0407,-1.0398,-1.0395,-1.0344,-1.0333,-1.0323,-1.0317,-1.0276,-1.0267,-1.0232,-1.0232,-1.0228,-1.0248,-1.0195,-1.0232,-1.0235,-1.0238,-1.0305,-1.0314,-1.0322,0,0,0,0,0,-1.0449,-1.0472,-1.0451,-1.0446,-1.0408,-1.0396,-1.0391,-1.035,-1.0325,-1.0334,-1.0304,-1.0268,-1.025,-1.0232,-1.0228,-1.0248,-1.023,-1.0234,-1.0238,-1.0301,-1.0313,-1.0322,0,0,0,0,0,0,-1.0517,-1.0465,-1.0441,-1.0451,-1.0429,-1.0384,-1.0393,-1.0363,-1.0347,-1.0341,-1.0291,-1.0282,-1.029,-1.0269,-1.0251,-1.0272,-1.0235,-1.0238,-1.0285,-1.0295,-1.0303,-1.0308,-1.0194,0,0,0,0,0,-1.0534,-1.0528,-1.0483,-1.0496,-1.0486,-1.0442,-1.0435,-1.0406,-1.0381,-1.0371,-1.034,-1.0317,-1.0306,-1.0299,-1.0286,-1.0303,-1.0293,-1.0315,-1.0323,-1.033,-1.0333,-1.0342,-1.0351,-1.0252,-1.0252,-1.0252,0,0,-1.0567,-1.0538,-1.0537,-1.0509,-1.0488,-1.0484,-1.0434,-1.0431,-1.0428,-1.037,-1.037,-1.0348,-1.0318,-1.0328,-1.0331,-1.0311,-1.0359,-1.0335,-1.0341,-1.034,-1.0347,-1.0356,-1.0365,-1.0255,-1.0255,-1.0254,0,0,-1.0625,-1.0602,-1.0611,-1.0592,-1.0562,-1.0533,-1.0536,-1.0496,-1.048,-1.0479,-1.0436,-1.0432,-1.0413,-1.0394,-1.0382,-1.0438,-1.0404,-1.0435,-1.0479,-1.0488,-1.0495,-1.0502,-1.0522,-1.053,-1.0438,-1.0438,-1.0439,0,-1.0669,-1.0661,-1.0619,-1.062,-1.0609,-1.0558,-1.0567,-1.0551,-1.0518,-1.0512,-1.0491,-1.0468,-1.0444,-1.045,-1.0464,-1.0456,-1.0457,-1.0438,-1.0498,-1.0504,-1.051,-1.0528,-1.0536,-1.0442,-1.0442,-1.0441,-1.0441,0,-1.0718,-1.0714,-1.0725,-1.0696,-1.0686,-1.0691,-1.065,-1.0646,-1.0619,-1.0592,-1.0594,-1.0565,-1.0545,-1.0545,-1.0517,-1.0547,-1.0536,-1.0507,-1.0469,-1.0524,-1.054,-1.0547,-1.0448,-1.0446,-1.0445,-1.0444,0,0,-1.0815,-1.0765,-1.0769,-1.0756,-1.0721,-1.0717,-1.072,-1.0703,-1.07,-1.068,-1.0682,-1.0669,-1.0643,-1.063,-1.0601,-1.0609,-1.0655,-1.0579,-1.0577,-1.0594,-1.0687,-1.0708,-1.0717,-1.0634,-1.0635,-1.0636,-1.069,0,-1.0866,-1.0869,-1.0833,-1.0845,-1.0841,-1.0795,-1.0798,-1.0777,-1.0753,-1.0746,-1.072,-1.0712,-1.0678,-1.067,-1.0676,-1.0648,-1.0673,-1.0644,-1.0635,-1.0635,-1.0643,-1.0726,-1.0748,-1.0799,-1.0696,-1.0697,-1.0698,0,-1.0926,-1.0911,-1.0923,-1.089,-1.0887,-1.089,-1.0872,-1.0866,-1.0842,-1.0825,-1.0812,-1.0779,-1.0781,-1.0746,-1.0748,-1.0729,-1.0724,-1.071,-1.0711,-1.0707,-1.0669,-1.0724,-1.0815,-1.0822,-1.0707,-1.0707,-1.0706,0,-1.0995,-1.0978,-1.0984,-1.0974,-1.0935,-1.0939,-1.0922,-1.0897,-1.089,-1.0874,-1.0869,-1.0854,-1.0846,-1.0835,-1.08,-1.0778,-1.0806,-1.0768,-1.0792,-1.0793,-1.0798,-1.0798,-1.0889,-1.0797,-1.0797,-1.0796,-1.0796,0,-1.1056,-1.1065,-1.1015,-1.1018,-1.1028,-1.0987,-1.0998,-1.0978,-1.0956,-1.0955,-1.0914,-1.0914,-1.0868,-1.0863,-1.0835,-1.0841,-1.0838,-1.0824,-1.0816,-1.0827,-1.0829,-1.0822,-1.0817,-1.0798,-1.0798,-1.0798,-1.0797,0,-1.1134,-1.11,-1.1104,-1.1067,-1.1058,-1.1068,-1.1036,-1.1038,-1.1014,-1.1013,-1.1011,-1.0972,-1.0964,-1.0928,-1.0912,-1.0893,-1.0909,-1.0895,-1.0917,-1.0912,-1.0938,-1.0936,-1.1026,-1.1036,-1.0939,-1.094,-1.0941,0,-1.1174,-1.1181,-1.1146,-1.1143,-1.1129,-1.1124,-1.1117,-1.1078,-1.1072,-1.1047,-1.1053,-1.1042,-1.1031,-1.1022,-1.0992,-1.098,-1.0964,-1.0997,-1.0962,-1.0973,-1.0964,-1.0964,-1.0965,-1.1004,-1.1005,-1.1006,-1.1007,0,-1.1249,-1.1233,-1.1224,-1.1211,-1.1204,-1.1191,-1.1176,-1.1176,-1.1133,-1.1129,-1.1121,-1.1113,-1.1098,-1.1088,-1.1072,-1.1055,-1.1024,-1.1019,-1.1023,-1.1034,-1.1047,-1.104,-1.0937,-1.1016,-1.1015,-1.1014,-1.1014,-1.1014,-1.1309,-1.1314,-1.129,-1.1283,-1.1268,-1.1255,-1.1256,-1.1233,-1.1226,-1.121,-1.1188,-1.1184,-1.1162,-1.1137,-1.1123,-1.112,-1.1102,-1.1109,-1.111,-1.1113,-1.1118,-1.1049,-1.1117,-1.1116,-1.1116,-1.1116,-1.1116,0,-1.1382,-1.1366,-1.136,-1.134,-1.1335,-1.1308,-1.1291,-1.1288,-1.1285,-1.1268,-1.1259,-1.1251,-1.1242,-1.1213,-1.1202,-1.1205,-1.119,-1.1203,-1.1201,-1.1198,-1.1135,-1.1132,-1.1215,-1.1215,-1.1215,-1.1215,-1.1215,-1.1215,-1.142,-1.1426,-1.1408,-1.1407,-1.139,-1.1386,-1.1379,-1.1367,-1.1353,-1.1347,-1.134,-1.1322,-1.13,-1.1287,-1.1278,-1.127,-1.1267,-1.1285,-1.1272,-1.1212,-1.1203,-1.1194,-1.119,-1.1284,-1.1285,-1.1335,-1.1336,-1.1336]},{"header":{"parameterUnit":"m.s-1","parameterCategory":1,"la1":30.2991,"la2":30.254,"lo1":-89.0895,"lo2":-89.0444,"dy":0.0017,"dx":0.0017,"nx":28,"ny":28,"refTime":"2024-02-03T03:00:00:Z","depth":0,"parameterNumber":3,"parameterNumberName":"V-component_of_WINDS"},"data":[0,0,0,0,0,0,0,0,0,0,0,0,0,0,0,0,0,0,0,0,0,0,0,0,0,0,0,0,0,0,0,0,0,0,0,0,0,0,0,0,0,0,0,0,0,0,0,0,0,0,0,0,0,0,0,0,0,0,1.9453,1.9453,0,1.946,1.946,1.9461,1.9521,1.9522,1.9524,1.9525,1.9527,1.9526,1.9524,0,0,0,0,0,0,0,0,0,0,0,0,0,1.9487,1.9486,1.9453,1.9453,1.9453,1.946,1.946,1.9461,1.9521,1.9523,1.9524,1.9526,1.9528,1.9526,1.9524,0,0,0,0,0,0,0,0,0,0,0,0,0,1.9481,1.9486,1.9453,1.9484,1.9487,1.946,1.946,1.9461,1.952,1.9523,1.9525,1.9527,1.9528,1.9526,1.9524,1.9466,0,0,1.9518,1.9517,0,0,0,0,0,0,0,0,1.9481,1.948,1.948,1.9482,1.9485,1.9492,1.9473,1.9462,1.952,1.9508,1.9525,1.9528,1.9513,1.9513,1.9509,1.9466,1.9466,1.9518,1.9516,1.9516,1.9515,0,0,0,0,0,0,0,1.9481,1.948,1.9456,1.948,1.9483,1.9497,1.9498,1.9471,1.9497,1.9509,1.9513,1.9514,1.9515,1.9511,1.9509,1.9466,1.9518,1.9516,1.9515,1.9514,1.9377,1.9375,0,0,0,0,0,0,1.9478,1.948,1.9456,1.9456,1.9489,1.9494,1.9496,1.9488,1.9498,1.9502,1.9512,1.9516,1.9513,1.9512,1.951,1.9443,1.9516,1.9514,1.9512,1.9379,1.9376,1.9374,0,0,0,0,0,0,1.9479,1.9476,1.9455,1.9469,1.9468,1.9491,1.9481,1.9487,1.9482,1.95,1.9505,1.9502,1.9515,1.9512,1.9477,1.9444,1.9513,1.9511,1.9382,1.9378,1.9375,1.9308,0,0,0,0,0,0,1.9479,1.9475,1.9454,1.9468,1.9467,1.9424,1.9479,1.9485,1.9479,1.9485,1.9493,1.9496,1.9516,1.948,1.9475,1.9442,1.9509,1.9385,1.9381,1.9376,1.9313,1.9303,1.9293,0,0,0,0,0,1.948,1.9434,1.9453,1.945,1.9441,1.9422,1.9421,1.9447,1.9476,1.9455,1.9467,1.9496,1.9448,1.9476,1.9471,1.9437,1.9387,1.9382,1.9377,1.9318,1.9305,1.9294,0,0,0,0,0,0,1.9413,1.9436,1.9458,1.9415,1.9416,1.9432,1.9406,1.9432,1.9423,1.9429,1.946,1.9461,1.9421,1.9425,1.9455,1.9381,1.9423,1.9416,1.938,1.9368,1.9358,1.9357,1.9508,0,0,0,0,0,1.9394,1.9378,1.9398,1.9358,1.9358,1.9381,1.9374,1.9394,1.9396,1.9396,1.9405,1.9405,1.939,1.9379,1.9366,1.9315,1.9317,1.9289,1.9279,1.9271,1.9264,1.9237,1.9225,1.9356,1.9356,1.9356,0,0,1.9353,1.9363,1.9351,1.9345,1.9348,1.9329,1.9381,1.9359,1.9345,1.9392,1.936,1.9367,1.9368,1.9324,1.9305,1.9327,1.9229,1.9264,1.9257,1.9255,1.9231,1.9218,1.9207,1.9352,1.9353,1.9354,0,0,1.9268,1.9275,1.9243,1.9246,1.9251,1.9268,1.926,1.9272,1.9279,1.9248,1.9283,1.9266,1.924,1.9239,1.9236,1.9153,1.9179,1.9147,1.9095,1.9068,1.9058,1.9049,1.9019,1.9008,1.9141,1.9141,1.9141,0,1.9216,1.9191,1.9222,1.9198,1.9194,1.9239,1.9205,1.9206,1.9206,1.9202,1.9226,1.9195,1.9199,1.9156,1.9136,1.9131,1.9123,1.9146,1.9057,1.9049,1.9041,1.9012,1.9001,1.9137,1.9137,1.9138,1.9138,0,1.9126,1.9108,1.9081,1.9082,1.9075,1.9047,1.9073,1.9062,1.9083,1.9096,1.9063,1.907,1.906,1.9051,1.907,1.9011,1.9024,1.9052,1.9095,1.9024,1.8998,1.8987,1.9131,1.9133,1.9134,1.9135,0,0,1.8998,1.9019,1.9008,1.901,1.902,1.9005,1.8979,1.8971,1.896,1.8959,1.8937,1.8914,1.8941,1.8937,1.8957,1.8934,1.8868,1.8965,1.8966,1.8946,1.8802,1.8781,1.8768,1.8886,1.8884,1.8882,1.8802,0,1.8917,1.8874,1.8902,1.8854,1.8837,1.888,1.8857,1.8859,1.8871,1.8858,1.8871,1.8855,1.8891,1.8889,1.8868,1.888,1.8839,1.8886,1.8864,1.8863,1.8862,1.8754,1.8731,1.8655,1.8792,1.879,1.8789,0,1.8816,1.8813,1.8764,1.8778,1.8772,1.8751,1.8746,1.8733,1.8737,1.8748,1.8744,1.877,1.8743,1.8786,1.875,1.8781,1.8774,1.8778,1.8776,1.8774,1.8821,1.8749,1.8631,1.8619,1.8774,1.8775,1.8776,0,1.8727,1.8711,1.8679,1.8679,1.8695,1.8679,1.8685,1.8691,1.8685,1.868,1.8676,1.8668,1.8663,1.8655,1.8678,1.8707,1.8638,1.8683,1.8645,1.8644,1.8628,1.8628,1.8507,1.8624,1.8624,1.8624,1.8624,0,1.8633,1.8601,1.864,1.8621,1.8586,1.8618,1.8583,1.8593,1.8598,1.8581,1.8616,1.8599,1.863,1.8615,1.8633,1.86,1.8597,1.8604,1.8609,1.8601,1.86,1.8596,1.8601,1.8621,1.8622,1.8622,1.8623,0,1.8528,1.8553,1.8522,1.854,1.8544,1.8517,1.8532,1.8515,1.853,1.8507,1.8504,1.8527,1.8511,1.8534,1.852,1.8532,1.8487,1.85,1.8486,1.8489,1.845,1.8454,1.8321,1.8306,1.8433,1.8432,1.8431,0,1.8466,1.8443,1.846,1.8452,1.8456,1.8442,1.8436,1.8467,1.8459,1.8463,1.8444,1.8432,1.8425,1.8398,1.8412,1.8402,1.8415,1.8369,1.8413,1.8406,1.8414,1.8415,1.8413,1.836,1.8358,1.8357,1.8356,0,1.8354,1.8368,1.8359,1.8355,1.8348,1.8346,1.8346,1.8336,1.8369,1.8358,1.8344,1.8338,1.8326,1.8313,1.8307,1.8311,1.8338,1.8342,1.8333,1.8324,1.8317,1.832,1.8461,1.8345,1.8346,1.8347,1.8347,1.8348,1.8269,1.825,1.826,1.8249,1.8253,1.8252,1.8237,1.8251,1.8241,1.8234,1.8252,1.8234,1.8239,1.8234,1.8235,1.822,1.824,1.8226,1.8223,1.8219,1.8213,1.832,1.8219,1.8219,1.822,1.822,1.822,0,1.8158,1.8167,1.8157,1.8157,1.8148,1.8177,1.8179,1.817,1.8153,1.8157,1.8149,1.8132,1.8121,1.8135,1.8126,1.8111,1.8123,1.8107,1.8109,1.8109,1.8196,1.8205,1.8098,1.8098,1.8098,1.8098,1.8098,1.8098,1.81,1.8071,1.8085,1.8058,1.8067,1.805,1.8049,1.8048,1.8051,1.8032,1.8023,1.8034,1.8041,1.8033,1.8023,1.8028,1.8022,1.8002,1.801,1.8091,1.8103,1.8114,1.8123,1.8,1.8,1.7925,1.7924,1.7924]}]]